Tracking 27079 objects as of 24-Mar-2023
HD Live streaming from Space Station
objects crossing your sky now

THOR 3

Track THOR 3 now!
THOR 3 is classified as:


NORAD ID: 25358
Int'l Code: 1998-035A
Perigee: 36,195.7 km
Apogee: 36,211.4 km
Inclination: 9.6 °
Period: 1,457.1 minutes
Semi major axis: 42574 km
RCS: 23.5207 m2 (large)
Launch date: June 10, 1998
Source: Norway (NOR)
Launch site: AIR FORCE EASTERN TEST RANGE (AFETR)

14 Ku-band; Nordic region, central and eastern Europe.
Your satellite tracking list
Your tracking list is empty




NASA's NSSDC Master Catalog

Two Line Element Set (TLE):
1 25358U 98035A   23082.48521594  .00000032  00000-0  00000-0 0  9996
2 25358   9.5648  47.7966 0001845  76.5884 283.6256  0.98827360 90804
Source of the keplerian elements: AFSPC